Time,TemperatureF,DewpointF,PressureIn,WindDirection,WindDirectionDegrees,WindSpeedMPH,WindSpeedGustMPH,Humidity,HourlyPrecipIn,Conditions,Clouds,dailyrainin,SoftwareType,DateUTC
2013-06-28 00:00:00,77.2,76.6,29.93,North,5,0.0,0.0,98,0.00,,,0.00,WUHU216DAVISVP2,2013-06-28 04:00:00,
2013-06-28 00:01:00,77.2,76.6,29.93,North,5,0.0,0.0,98,0.00,,,0.00,WUHU216DAVISVP2,2013-06-28 04:01:00,
2013-06-28 00:06:00,77.2,76.6,29.93,North,5,0.0,0.0,98,0.00,,,0.00,WUHU216DAVISVP2,2013-06-28 04:06:00,
2013-06-28 00:11:00,77.2,76.6,29.93,North,5,0.0,0.0,98,0.00,,,0.00,WUHU216DAVISVP2,2013-06-28 04:11:00,
2013-06-28 00:16:00,77.3,76.7,29.93,North,5,0.0,0.0,98,0.00,,,0.00,WUHU216DAVISVP2,2013-06-28 04:16:00,
2013-06-28 00:21:00,77.3,76.7,29.93,North,5,0.0,0.0,98,0.00,,,0.00,WUHU216DAVISVP2,2013-06-28 04:21:00,
2013-06-28 00:26:00,77.3,76.7,29.93,North,5,0.0,0.0,98,0.00,,,0.00,WUHU216DAVISVP2,2013-06-28 04:26:00,
2013-06-28 00:31:00,77.4,76.8,29.92,North,5,0.0,0.0,98,0.00,,,0.00,WUHU216DAVISVP2,2013-06-28 04:31:00,
2013-06-28 00:36:00,77.5,76.9,29.92,North,5,0.0,0.0,98,0.00,,,0.00,WUHU216DAVISVP2,2013-06-28 04:36:00,
2013-06-28 00:41:00,77.6,77.0,29.92,North,5,0.0,1.0,98,0.00,,,0.00,WUHU216DAVISVP2,2013-06-28 04:41:00,
2013-06-28 00:46:00,77.7,77.1,29.92,North,11,1.0,1.0,98,0.00,,,0.00,WUHU216DAVISVP2,2013-06-28 04:46:00,
2013-06-28 00:51:00,77.7,77.1,29.92,North,11,0.0,1.0,98,0.00,,,0.00,WUHU216DAVISVP2,2013-06-28 04:51:00,
2013-06-28 00:56:00,77.8,77.2,29.92,North,11,0.0,0.0,98,0.00,,,0.00,WUHU216DAVISVP2,2013-06-28 04:56:00,
2013-06-28 01:01:00,77.9,77.3,29.91,North,11,0.0,0.0,98,0.00,,,0.00,WUHU216DAVISVP2,2013-06-28 05:01:00,
2013-06-28 01:06:00,77.9,77.0,29.92,North,11,0.0,1.0,97,0.00,,,0.00,WUHU216DAVISVP2,2013-06-28 05:06:00,
2013-06-28 01:11:00,77.9,77.0,29.92,North,11,0.0,1.0,97,0.00,,,0.00,WUHU216DAVISVP2,2013-06-28 05:11:00,
2013-06-28 01:16:00,77.9,77.0,29.92,North,11,0.0,0.0,97,0.00,,,0.00,WUHU216DAVISVP2,2013-06-28 05:16:00,
2013-06-28 01:21:00,77.9,77.0,29.92,North,11,0.0,0.0,97,0.00,,,0.00,WUHU216DAVISVP2,2013-06-28 05:21:00,
2013-06-28 01:26:00,77.9,77.0,29.92,North,11,1.0,1.0,97,0.00,,,0.00,WUHU216DAVISVP2,2013-06-28 05:26:00,
2013-06-28 01:31:00,77.9,77.0,29.92,WNW,296,0.0,1.0,97,0.00,,,0.00,WUHU216DAVISVP2,2013-06-28 05:31:00,
2013-06-28 01:36:00,77.9,77.0,29.92,North,5,0.0,1.0,97,0.00,,,0.00,WUHU216DAVISVP2,2013-06-28 05:36:00,
2013-06-28 01:41:00,77.8,76.9,29.91,North,5,0.0,0.0,97,0.00,,,0.00,WUHU216DAVISVP2,2013-06-28 05:41:00,
2013-06-28 01:46:00,77.8,76.9,29.91,North,5,0.0,0.0,97,0.00,,,0.00,WUHU216DAVISVP2,2013-06-28 05:46:00,
2013-06-28 01:51:00,77.9,77.0,29.91,North,5,0.0,0.0,97,0.00,,,0.00,WUHU216DAVISVP2,2013-06-28 05:51:00,
2013-06-28 01:56:00,77.8,76.9,29.92,North,5,0.0,0.0,97,0.00,,,0.00,WUHU216DAVISVP2,2013-06-28 05:56:00,
2013-06-28 02:01:00,77.8,76.5,29.92,North,5,0.0,1.0,96,0.00,,,0.00,WUHU216DAVISVP2,2013-06-28 06:01:00,
2013-06-28 02:06:00,77.9,76.6,29.92,NNW,339,0.0,1.0,96,0.00,,,0.00,WUHU216DAVISVP2,2013-06-28 06:06:00,
2013-06-28 02:11:00,77.9,76.6,29.92,NNW,339,0.0,1.0,96,0.00,,,0.00,WUHU216DAVISVP2,2013-06-28 06:11:00,
2013-06-28 02:16:00,77.8,76.5,29.92,NNW,339,0.0,0.0,96,0.00,,,0.00,WUHU216DAVISVP2,2013-06-28 06:16:00,
2013-06-28 02:21:00,77.9,76.6,29.91,NNW,339,0.0,0.0,96,0.00,,,0.00,WUHU216DAVISVP2,2013-06-28 06:21:00,
2013-06-28 02:26:00,77.9,76.6,29.91,NNW,339,0.0,0.0,96,0.00,,,0.00,WUHU216DAVISVP2,2013-06-28 06:26:00,
2013-06-28 02:31:00,77.9,76.6,29.91,NNW,339,0.0,0.0,96,0.00,,,0.00,WUHU216DAVISVP2,2013-06-28 06:31:00,
2013-06-28 02:36:00,77.9,76.6,29.90,NE,34,0.0,1.0,96,0.00,,,0.00,WUHU216DAVISVP2,2013-06-28 06:36:00,
2013-06-28 02:41:00,77.9,76.6,29.90,NE,34,0.0,1.0,96,0.00,,,0.00,WUHU216DAVISVP2,2013-06-28 06:41:00,
2013-06-28 02:46:00,77.9,76.6,29.90,NE,34,0.0,0.0,96,0.00,,,0.00,WUHU216DAVISVP2,2013-06-28 06:46:00,
2013-06-28 02:51:00,77.9,76.6,29.91,NE,34,0.0,1.0,96,0.00,,,0.00,WUHU216DAVISVP2,2013-06-28 06:51:00,
2013-06-28 02:56:00,77.9,76.6,29.91,NE,34,0.0,1.0,96,0.00,,,0.00,WUHU216DAVISVP2,2013-06-28 06:56:00,
2013-06-28 03:01:00,77.9,76.6,29.91,SW,234,0.0,3.0,96,0.00,,,0.00,WUHU216DAVISVP2,2013-06-28 07:01:00,
2013-06-28 03:06:00,77.9,76.6,29.91,SW,234,0.0,3.0,96,0.00,,,0.00,WUHU216DAVISVP2,2013-06-28 07:06:00,
2013-06-28 03:11:00,77.9,76.6,29.90,SW,234,0.0,0.0,96,0.00,,,0.00,WUHU216DAVISVP2,2013-06-28 07:11:00,
2013-06-28 03:16:00,77.9,76.6,29.90,SW,227,0.0,2.0,96,0.00,,,0.00,WUHU216DAVISVP2,2013-06-28 07:16:00,
2013-06-28 03:21:00,77.8,76.5,29.89,SW,223,0.0,2.0,96,0.00,,,0.00,WUHU216DAVISVP2,2013-06-28 07:21:00,
2013-06-28 03:26:00,77.8,76.5,29.89,SW,223,0.0,0.0,96,0.00,,,0.00,WUHU216DAVISVP2,2013-06-28 07:26:00,
2013-06-28 03:31:00,77.8,76.5,29.89,SW,223,0.0,1.0,96,0.00,,,0.00,WUHU216DAVISVP2,2013-06-28 07:31:00,
2013-06-28 03:36:00,77.7,76.4,29.90,SW,223,0.0,1.0,96,0.00,,,0.00,WUHU216DAVISVP2,2013-06-28 07:36:00,
2013-06-28 03:41:00,77.7,76.4,29.89,ESE,121,0.0,2.0,96,0.00,,,0.00,WUHU216DAVISVP2,2013-06-28 07:41:00,
2013-06-28 03:46:00,77.7,76.4,29.89,ESE,121,0.0,2.0,96,0.00,,,0.00,WUHU216DAVISVP2,2013-06-28 07:46:00,
2013-06-28 03:51:00,77.7,76.4,29.89,ESE,121,0.0,1.0,96,0.00,,,0.00,WUHU216DAVISVP2,2013-06-28 07:51:00,
2013-06-28 03:56:00,77.7,76.4,29.89,ESE,121,0.0,0.0,96,0.00,,,0.00,WUHU216DAVISVP2,2013-06-28 07:56:00,
2013-06-28 04:01:00,77.7,76.4,29.90,ESE,121,0.0,0.0,96,0.00,,,0.00,WUHU216DAVISVP2,2013-06-28 08:01:00,
2013-06-28 04:06:00,77.7,76.4,29.90,ESE,121,0.0,0.0,96,0.00,,,0.00,WUHU216DAVISVP2,2013-06-28 08:06:00,
2013-06-28 04:11:00,77.7,76.4,29.89,ESE,121,0.0,1.0,96,0.00,,,0.00,WUHU216DAVISVP2,2013-06-28 08:11:00,
2013-06-28 04:16:00,77.7,76.4,29.89,ESE,121,0.0,1.0,96,0.00,,,0.00,WUHU216DAVISVP2,2013-06-28 08:16:00,
2013-06-28 04:21:00,77.6,76.3,29.89,ESE,121,0.0,0.0,96,0.00,,,0.00,WUHU216DAVISVP2,2013-06-28 08:21:00,
2013-06-28 04:26:00,77.6,76.3,29.90,ESE,121,0.0,0.0,96,0.00,,,0.00,WUHU216DAVISVP2,2013-06-28 08:26:00,
2013-06-28 04:31:00,77.6,76.3,29.89,ESE,121,0.0,0.0,96,0.00,,,0.00,WUHU216DAVISVP2,2013-06-28 08:31:00,
2013-06-28 04:36:00,77.6,76.3,29.89,ESE,121,0.0,0.0,96,0.00,,,0.00,WUHU216DAVISVP2,2013-06-28 08:36:00,
2013-06-28 04:41:00,77.6,76.3,29.89,ESE,121,0.0,0.0,96,0.00,,,0.00,WUHU216DAVISVP2,2013-06-28 08:41:00,
2013-06-28 04:46:00,77.5,76.2,29.89,ESE,121,0.0,0.0,96,0.00,,,0.00,WUHU216DAVISVP2,2013-06-28 08:46:00,
2013-06-28 04:51:00,77.6,76.3,29.89,ESE,121,0.0,0.0,96,0.00,,,0.00,WUHU216DAVISVP2,2013-06-28 08:51:00,
2013-06-28 04:56:00,77.6,76.3,29.89,ESE,121,0.0,0.0,96,0.00,,,0.00,WUHU216DAVISVP2,2013-06-28 08:56:00,
2013-06-28 05:01:00,77.6,76.3,29.88,ESE,121,0.0,0.0,96,0.00,,,0.00,WUHU216DAVISVP2,2013-06-28 09:01:00,
2013-06-28 05:06:00,77.5,76.2,29.88,ENE,57,0.0,0.0,96,0.00,,,0.00,WUHU216DAVISVP2,2013-06-28 09:06:00,
2013-06-28 05:11:00,77.5,76.2,29.88,ENE,57,0.0,0.0,96,0.00,,,0.00,WUHU216DAVISVP2,2013-06-28 09:11:00,
2013-06-28 05:16:00,77.5,76.2,29.88,NE,56,0.0,0.0,96,0.00,,,0.00,WUHU216DAVISVP2,2013-06-28 09:16:00,
2013-06-28 05:21:00,77.5,76.2,29.88,South,183,0.0,2.0,96,0.00,,,0.00,WUHU216DAVISVP2,2013-06-28 09:21:00,
2013-06-28 05:26:00,77.6,76.3,29.88,South,183,0.0,2.0,96,0.00,,,0.00,WUHU216DAVISVP2,2013-06-28 09:26:00,
2013-06-28 05:31:00,77.6,76.3,29.88,South,183,0.0,0.0,96,0.00,,,0.00,WUHU216DAVISVP2,2013-06-28 09:31:00,
2013-06-28 05:36:00,77.6,76.3,29.88,ENE,78,0.0,0.0,96,0.00,,,0.00,WUHU216DAVISVP2,2013-06-28 09:36:00,
2013-06-28 05:41:00,77.5,76.2,29.88,ENE,78,0.0,0.0,96,0.00,,,0.00,WUHU216DAVISVP2,2013-06-28 09:41:00,
2013-06-28 05:46:00,77.5,76.2,29.89,ENE,77,0.0,0.0,96,0.00,,,0.00,WUHU216DAVISVP2,2013-06-28 09:46:00,
2013-06-28 05:51:00,77.5,76.2,29.89,ENE,77,0.0,0.0,96,0.00,,,0.00,WUHU216DAVISVP2,2013-06-28 09:51:00,
2013-06-28 05:56:00,77.4,76.1,29.89,ENE,77,0.0,1.0,96,0.00,,,0.00,WUHU216DAVISVP2,2013-06-28 09:56:00,
2013-06-28 06:01:00,77.3,76.0,29.89,ENE,77,0.0,1.0,96,0.00,,,0.00,WUHU216DAVISVP2,2013-06-28 10:01:00,
2013-06-28 06:06:00,77.3,76.0,29.89,ENE,78,1.0,1.0,96,0.00,,,0.00,WUHU216DAVISVP2,2013-06-28 10:06:00,
2013-06-28 06:11:00,77.3,76.0,29.89,ENE,78,0.0,1.0,96,0.00,,,0.00,WUHU216DAVISVP2,2013-06-28 10:11:00,
2013-06-28 06:16:00,77.1,75.8,29.90,East,79,0.0,0.0,96,0.00,,,0.00,WUHU216DAVISVP2,2013-06-28 10:16:00,
2013-06-28 06:21:00,77.1,75.8,29.89,East,79,0.0,0.0,96,0.00,,,0.00,WUHU216DAVISVP2,2013-06-28 10:21:00,
2013-06-28 06:26:00,77.1,75.8,29.89,ENE,75,0.0,1.0,96,0.00,,,0.00,WUHU216DAVISVP2,2013-06-28 10:26:00,
2013-06-28 06:31:00,77.1,75.8,29.89,ENE,76,0.0,1.0,96,0.00,,,0.00,WUHU216DAVISVP2,2013-06-28 10:31:00,
2013-06-28 06:36:00,77.0,75.7,29.90,ENE,75,0.0,0.0,96,0.00,,,0.00,WUHU216DAVISVP2,2013-06-28 10:36:00,
2013-06-28 06:41:00,77.0,76.1,29.90,ENE,76,0.0,0.0,97,0.00,,,0.00,WUHU216DAVISVP2,2013-06-28 10:41:00,
2013-06-28 06:46:00,77.0,76.1,29.90,ENE,76,0.0,0.0,97,0.00,,,0.00,WUHU216DAVISVP2,2013-06-28 10:46:00,
2013-06-28 06:51:00,77.1,76.2,29.90,ENE,76,0.0,0.0,97,0.00,,,0.00,WUHU216DAVISVP2,2013-06-28 10:51:00,
2013-06-28 06:56:00,77.1,76.2,29.90,NE,38,0.0,1.0,97,0.00,,,0.00,WUHU216DAVISVP2,2013-06-28 10:56:00,
2013-06-28 07:01:00,77.1,76.2,29.90,NE,38,0.0,1.0,97,0.00,,,0.00,WUHU216DAVISVP2,2013-06-28 11:01:00,
2013-06-28 07:06:00,77.2,76.3,29.90,NE,38,0.0,0.0,97,0.01,,,0.01,WUHU216DAVISVP2,2013-06-28 11:06:00,
2013-06-28 07:11:00,77.2,76.3,29.90,NE,38,0.0,0.0,97,0.01,,,0.01,WUHU216DAVISVP2,2013-06-28 11:11:00,
2013-06-28 07:16:00,77.3,76.4,29.90,NE,38,0.0,1.0,97,0.01,,,0.01,WUHU216DAVISVP2,2013-06-28 11:16:00,
2013-06-28 07:21:00,77.3,76.4,29.90,North,5,0.0,1.0,97,0.01,,,0.01,WUHU216DAVISVP2,2013-06-28 11:21:00,
2013-06-28 07:26:00,77.4,76.5,29.90,North,360,0.0,1.0,97,0.01,,,0.01,WUHU216DAVISVP2,2013-06-28 11:26:00,
2013-06-28 07:31:00,77.6,76.7,29.89,ESE,103,0.0,1.0,97,0.01,,,0.01,WUHU216DAVISVP2,2013-06-28 11:31:00,
2013-06-28 07:36:00,77.6,76.7,29.89,North,360,0.0,1.0,97,0.01,,,0.01,WUHU216DAVISVP2,2013-06-28 11:36:00,
2013-06-28 07:41:00,77.7,76.8,29.90,NNE,23,0.0,1.0,97,0.01,,,0.01,WUHU216DAVISVP2,2013-06-28 11:41:00,
2013-06-28 07:46:00,77.8,76.9,29.89,NNE,23,0.0,1.0,97,0.01,,,0.01,WUHU216DAVISVP2,2013-06-28 11:46:00,
2013-06-28 07:51:00,77.9,77.0,29.90,NNE,23,0.0,0.0,97,0.01,,,0.01,WUHU216DAVISVP2,2013-06-28 11:51:00,
2013-06-28 07:56:00,78.0,77.1,29.89,NNE,23,0.0,1.0,97,0.01,,,0.01,WUHU216DAVISVP2,2013-06-28 11:56:00,
2013-06-28 08:01:00,78.1,77.2,29.89,NNE,23,0.0,1.0,97,0.01,,,0.01,WUHU216DAVISVP2,2013-06-28 12:01:00,
2013-06-28 08:06:00,78.2,76.9,29.89,NNE,24,0.0,2.0,96,0.00,,,0.01,WUHU216DAVISVP2,2013-06-28 12:06:00,
2013-06-28 08:11:00,78.3,77.0,29.89,NNE,23,0.0,2.0,96,0.00,,,0.01,WUHU216DAVISVP2,2013-06-28 12:11:00,
2013-06-28 08:16:00,78.5,77.2,29.89,NNE,23,0.0,1.0,96,0.00,,,0.01,WUHU216DAVISVP2,2013-06-28 12:16:00,
2013-06-28 08:21:00,78.6,77.3,29.89,West,267,2.0,2.0,96,0.00,,,0.01,WUHU216DAVISVP2,2013-06-28 12:21:00,
2013-06-28 08:26:00,78.7,77.1,29.89,West,261,0.0,2.0,95,0.00,,,0.01,WUHU216DAVISVP2,2013-06-28 12:26:00,
2013-06-28 08:31:00,78.8,77.2,29.89,West,263,0.0,2.0,95,0.00,,,0.01,WUHU216DAVISVP2,2013-06-28 12:31:00,
2013-06-28 08:36:00,79.1,77.5,29.89,West,281,0.0,2.0,95,0.00,,,0.01,WUHU216DAVISVP2,2013-06-28 12:36:00,
2013-06-28 08:41:00,79.3,77.7,29.89,North,349,1.0,2.0,95,0.00,,,0.01,WUHU216DAVISVP2,2013-06-28 12:41:00,
2013-06-28 08:46:00,79.5,77.6,29.89,NE,41,0.0,2.0,94,0.00,,,0.01,WUHU216DAVISVP2,2013-06-28 12:46:00,
2013-06-28 08:51:00,79.8,77.9,29.89,SW,223,0.0,2.0,94,0.00,,,0.01,WUHU216DAVISVP2,2013-06-28 12:51:00,
2013-06-28 08:56:00,80.2,78.0,29.89,SSW,201,0.0,2.0,93,0.00,,,0.01,WUHU216DAVISVP2,2013-06-28 12:56:00,
2013-06-28 09:01:00,80.4,77.8,29.89,East,99,1.0,3.0,92,0.00,,,0.01,WUHU216DAVISVP2,2013-06-28 13:01:00,
2013-06-28 09:06:00,80.6,77.7,29.89,East,97,0.0,3.0,91,0.00,,,0.01,WUHU216DAVISVP2,2013-06-28 13:06:00,
2013-06-28 09:11:00,81.0,78.1,29.89,SSW,198,0.0,4.0,91,0.00,,,0.01,WUHU216DAVISVP2,2013-06-28 13:11:00,
2013-06-28 09:16:00,81.3,78.1,29.89,East,101,0.0,4.0,90,0.00,,,0.01,WUHU216DAVISVP2,2013-06-28 13:16:00,
2013-06-28 09:21:00,81.5,78.0,29.89,SW,215,0.0,4.0,89,0.00,,,0.01,WUHU216DAVISVP2,2013-06-28 13:21:00,
2013-06-28 09:26:00,81.8,77.9,29.89,NE,37,0.0,5.0,88,0.00,,,0.01,WUHU216DAVISVP2,2013-06-28 13:26:00,
2013-06-28 09:31:00,81.9,77.7,29.89,SSW,209,0.0,5.0,87,0.00,,,0.01,WUHU216DAVISVP2,2013-06-28 13:31:00,
2013-06-28 09:36:00,82.1,77.5,29.89,ENE,71,0.0,4.0,86,0.00,,,0.01,WUHU216DAVISVP2,2013-06-28 13:36:00,
2013-06-28 09:41:00,82.4,77.5,29.89,East,91,4.0,6.0,85,0.00,,,0.01,WUHU216DAVISVP2,2013-06-28 13:41:00,
2013-06-28 09:46:00,82.7,77.8,29.89,South,174,0.0,6.0,85,0.00,,,0.01,WUHU216DAVISVP2,2013-06-28 13:46:00,
2013-06-28 09:51:00,82.9,78.0,29.89,East,90,0.0,4.0,85,0.00,,,0.01,WUHU216DAVISVP2,2013-06-28 13:51:00,
2013-06-28 09:56:00,83.1,77.8,29.88,ESE,109,0.0,5.0,84,0.00,,,0.01,WUHU216DAVISVP2,2013-06-28 13:56:00,
2013-06-28 10:01:00,83.3,78.0,29.88,SSW,212,1.0,5.0,84,0.00,,,0.01,WUHU216DAVISVP2,2013-06-28 14:01:00,
2013-06-28 10:06:00,83.5,77.5,29.88,East,101,0.0,4.0,82,0.00,,,0.01,WUHU216DAVISVP2,2013-06-28 14:06:00,
2013-06-28 10:11:00,83.6,77.3,29.88,SSW,210,1.0,2.0,81,0.00,,,0.01,WUHU216DAVISVP2,2013-06-28 14:11:00,
2013-06-28 10:16:00,83.8,77.8,29.88,SE,136,0.0,5.0,82,0.00,,,0.01,WUHU216DAVISVP2,2013-06-28 14:16:00,
2013-06-28 10:21:00,84.2,78.2,29.88,West,263,0.0,5.0,82,0.00,,,0.01,WUHU216DAVISVP2,2013-06-28 14:21:00,
2013-06-28 10:26:00,84.6,78.6,29.88,SSE,156,0.0,4.0,82,0.00,,,0.01,WUHU216DAVISVP2,2013-06-28 14:26:00,
2013-06-28 10:31:00,84.7,77.6,29.88,ESE,111,1.0,3.0,79,0.00,,,0.01,WUHU216DAVISVP2,2013-06-28 14:31:00,
2013-06-28 10:36:00,85.0,77.5,29.88,East,85,1.0,3.0,78,0.00,,,0.01,WUHU216DAVISVP2,2013-06-28 14:36:00,
2013-06-28 10:41:00,85.2,77.3,29.88,SSW,209,4.0,6.0,77,0.00,,,0.01,WUHU216DAVISVP2,2013-06-28 14:41:00,
2013-06-28 10:46:00,85.4,77.2,29.88,SW,217,0.0,6.0,76,0.00,,,0.01,WUHU216DAVISVP2,2013-06-28 14:46:00,
2013-06-28 10:51:00,85.6,77.7,29.88,SE,128,3.0,5.0,77,0.00,,,0.01,WUHU216DAVISVP2,2013-06-28 14:51:00,
2013-06-28 10:56:00,85.9,77.3,29.87,WNW,303,2.0,5.0,75,0.00,,,0.01,WUHU216DAVISVP2,2013-06-28 14:56:00,
2013-06-28 11:01:00,86.2,77.5,29.87,NNE,24,0.0,5.0,75,0.00,,,0.01,WUHU216DAVISVP2,2013-06-28 15:01:00,
2013-06-28 11:06:00,86.4,78.1,29.87,NNE,13,1.0,4.0,76,0.00,,,0.01,WUHU216DAVISVP2,2013-06-28 15:06:00,
2013-06-28 11:11:00,86.8,78.1,29.87,NE,53,0.0,3.0,75,0.00,,,0.01,WUHU216DAVISVP2,2013-06-28 15:11:00,
2013-06-28 11:16:00,87.0,78.7,29.87,WNW,286,0.0,1.0,76,0.00,,,0.01,WUHU216DAVISVP2,2013-06-28 15:16:00,
2013-06-28 11:21:00,87.5,78.0,29.87,NE,53,2.0,3.0,73,0.00,,,0.01,WUHU216DAVISVP2,2013-06-28 15:21:00,
2013-06-28 11:26:00,87.9,77.6,29.87,ENE,68,0.0,6.0,71,0.00,,,0.01,WUHU216DAVISVP2,2013-06-28 15:26:00,
2013-06-28 11:31:00,88.3,78.4,29.86,East,90,0.0,6.0,72,0.00,,,0.01,WUHU216DAVISVP2,2013-06-28 15:31:00,
2013-06-28 11:36:00,88.7,78.3,29.86,NNE,30,0.0,4.0,71,0.00,,,0.01,WUHU216DAVISVP2,2013-06-28 15:36:00,
2013-06-28 11:41:00,89.2,78.8,29.86,SSW,200,0.0,3.0,71,0.00,,,0.01,WUHU216DAVISVP2,2013-06-28 15:41:00,
2013-06-28 11:46:00,89.3,77.6,29.86,East,83,0.0,4.0,68,0.00,,,0.01,WUHU216DAVISVP2,2013-06-28 15:46:00,
2013-06-28 11:51:00,89.2,77.5,29.86,NE,51,0.0,5.0,68,0.00,,,0.01,WUHU216DAVISVP2,2013-06-28 15:51:00,
2013-06-28 11:56:00,89.2,78.0,29.85,South,175,2.0,5.0,69,0.00,,,0.01,WUHU216DAVISVP2,2013-06-28 15:56:00,
2013-06-28 12:01:00,89.4,77.3,29.85,SSW,196,1.0,3.0,67,0.00,,,0.01,WUHU216DAVISVP2,2013-06-28 16:01:00,
2013-06-28 12:06:00,89.7,77.6,29.85,East,86,0.0,4.0,67,0.00,,,0.01,WUHU216DAVISVP2,2013-06-28 16:06:00,
2013-06-28 12:11:00,90.1,78.0,29.85,East,86,1.0,5.0,67,0.00,,,0.01,WUHU216DAVISVP2,2013-06-28 16:11:00,
2013-06-28 12:16:00,90.4,78.7,29.85,East,94,0.0,5.0,68,0.00,,,0.01,WUHU216DAVISVP2,2013-06-28 16:16:00,
2013-06-28 12:21:00,90.8,77.7,29.85,East,88,4.0,5.0,65,0.00,,,0.01,WUHU216DAVISVP2,2013-06-28 16:21:00,
2013-06-28 12:26:00,90.5,77.0,29.85,East,98,2.0,7.0,64,0.00,,,0.01,WUHU216DAVISVP2,2013-06-28 16:26:00,
2013-06-28 12:31:00,90.4,77.3,29.86,SSW,200,2.0,7.0,65,0.00,,,0.01,WUHU216DAVISVP2,2013-06-28 16:31:00,
2013-06-28 12:36:00,90.8,77.3,29.85,ESE,113,2.0,4.0,64,0.00,,,0.01,WUHU216DAVISVP2,2013-06-28 16:36:00,
2013-06-28 12:41:00,90.7,77.2,29.85,NE,51,2.0,5.0,64,0.00,,,0.01,WUHU216DAVISVP2,2013-06-28 16:41:00,
2013-06-28 12:46:00,90.8,77.3,29.85,East,94,0.0,5.0,64,0.00,,,0.01,WUHU216DAVISVP2,2013-06-28 16:46:00,
2013-06-28 12:51:00,91.1,77.5,29.85,ENE,78,0.0,6.0,64,0.00,,,0.01,WUHU216DAVISVP2,2013-06-28 16:51:00,
2013-06-28 12:56:00,91.5,76.5,29.85,North,5,1.0,7.0,61,0.00,,,0.01,WUHU216DAVISVP2,2013-06-28 16:56:00,
2013-06-28 13:01:00,91.2,76.7,29.84,SSW,205,5.0,9.0,62,0.00,,,0.01,WUHU216DAVISVP2,2013-06-28 17:01:00,
2013-06-28 13:06:00,91.5,76.5,29.85,ENE,58,0.0,9.0,61,0.00,,,0.01,WUHU216DAVISVP2,2013-06-28 17:06:00,
2013-06-28 13:11:00,91.2,75.7,29.85,NNE,32,0.0,10.0,60,0.00,,,0.01,WUHU216DAVISVP2,2013-06-28 17:11:00,
2013-06-28 13:17:00,90.1,75.6,29.85,NNE,31,0.0,10.0,62,0.00,,,0.01,WUHU216DAVISVP2,2013-06-28 17:17:00,
2013-06-28 13:22:00,89.3,75.4,29.84,SW,221,0.0,7.0,63,0.00,,,0.01,WUHU216DAVISVP2,2013-06-28 17:22:00,
2013-06-28 13:27:00,88.9,75.9,29.84,SSE,168,1.0,5.0,65,0.00,,,0.01,WUHU216DAVISVP2,2013-06-28 17:27:00,
2013-06-28 13:32:00,88.9,76.4,29.84,East,83,3.0,5.0,66,0.00,,,0.01,WUHU216DAVISVP2,2013-06-28 17:32:00,
2013-06-28 13:37:00,88.8,76.7,29.84,South,191,0.0,6.0,67,0.00,,,0.01,WUHU216DAVISVP2,2013-06-28 17:37:00,
2013-06-28 13:41:00,89.2,77.5,29.84,WSW,240,0.0,6.0,68,0.00,,,0.01,WUHU216DAVISVP2,2013-06-28 17:41:00,
2013-06-28 13:47:00,89.8,77.7,29.84,NE,48,0.0,6.0,67,0.00,,,0.01,WUHU216DAVISVP2,2013-06-28 17:47:00,
2013-06-28 13:52:00,90.4,77.3,29.85,South,190,2.0,6.0,65,0.00,,,0.01,WUHU216DAVISVP2,2013-06-28 17:52:00,
2013-06-28 13:57:00,90.1,77.1,29.86,South,175,0.0,6.0,65,0.00,,,0.01,WUHU216DAVISVP2,2013-06-28 17:57:00,
2013-06-28 14:02:00,89.7,77.6,29.85,SSE,158,0.0,6.0,67,0.00,,,0.01,WUHU216DAVISVP2,2013-06-28 18:02:00,
2013-06-28 14:07:00,89.0,76.5,29.86,SSW,196,0.0,5.0,66,0.00,,,0.01,WUHU216DAVISVP2,2013-06-28 18:07:00,
2013-06-28 14:12:00,88.1,76.0,29.86,SSW,192,1.0,6.0,67,0.00,,,0.01,WUHU216DAVISVP2,2013-06-28 18:12:00,
2013-06-28 14:17:00,86.7,75.6,29.88,West,268,4.0,11.0,69,0.00,,,0.01,WUHU216DAVISVP2,2013-06-28 18:17:00,
2013-06-28 14:22:00,85.4,75.2,29.87,SSW,202,1.0,11.0,71,0.00,,,0.01,WUHU216DAVISVP2,2013-06-28 18:22:00,
2013-06-28 14:27:00,84.5,75.1,29.87,South,187,3.0,6.0,73,0.00,,,0.01,WUHU216DAVISVP2,2013-06-28 18:27:00,
2013-06-28 14:32:00,83.8,74.4,29.88,SSW,194,0.0,6.0,73,0.00,,,0.01,WUHU216DAVISVP2,2013-06-28 18:32:00,
2013-06-28 14:37:00,83.2,74.6,29.88,SW,235,5.0,6.0,75,0.00,,,0.01,WUHU216DAVISVP2,2013-06-28 18:37:00,
2013-06-28 14:42:00,82.3,74.9,29.88,SSW,197,0.0,7.0,78,0.00,,,0.01,WUHU216DAVISVP2,2013-06-28 18:42:00,
2013-06-28 14:47:00,81.6,74.2,29.88,SW,227,1.0,7.0,78,0.00,,,0.01,WUHU216DAVISVP2,2013-06-28 18:47:00,
2013-06-28 14:52:00,81.0,74.4,29.88,SSW,192,0.0,5.0,80,0.00,,,0.01,WUHU216DAVISVP2,2013-06-28 18:52:00,
2013-06-28 14:57:00,80.5,74.2,29.88,SW,229,0.0,5.0,81,0.00,,,0.01,WUHU216DAVISVP2,2013-06-28 18:57:00,
2013-06-28 15:02:00,80.3,74.4,29.88,South,176,0.0,4.0,82,0.00,,,0.01,WUHU216DAVISVP2,2013-06-28 19:02:00,
2013-06-28 15:07:00,80.2,74.3,29.88,South,180,1.0,1.0,82,0.00,,,0.01,WUHU216DAVISVP2,2013-06-28 19:07:00,
2013-06-28 15:12:00,80.1,74.2,29.88,SSW,213,0.0,9.0,82,0.00,,,0.01,WUHU216DAVISVP2,2013-06-28 19:12:00,
2013-06-28 15:17:00,80.0,73.7,29.88,SSW,193,0.0,9.0,81,0.00,,,0.01,WUHU216DAVISVP2,2013-06-28 19:17:00,
2013-06-28 15:22:00,80.0,73.7,29.87,South,178,0.0,4.0,81,0.00,,,0.01,WUHU216DAVISVP2,2013-06-28 19:22:00,
2013-06-28 15:27:00,80.2,74.3,29.87,South,177,0.0,3.0,82,0.00,,,0.01,WUHU216DAVISVP2,2013-06-28 19:27:00,
2013-06-28 15:32:00,80.3,74.7,29.86,South,184,3.0,4.0,83,0.00,,,0.01,WUHU216DAVISVP2,2013-06-28 19:32:00,
2013-06-28 15:37:00,80.3,74.7,29.85,South,186,0.0,4.0,83,0.00,,,0.01,WUHU216DAVISVP2,2013-06-28 19:37:00,
2013-06-28 15:42:00,80.3,75.1,29.85,WSW,246,0.0,5.0,84,0.00,,,0.01,WUHU216DAVISVP2,2013-06-28 19:42:00,
2013-06-28 15:47:00,80.3,75.1,29.85,SSW,196,0.0,5.0,84,0.00,,,0.01,WUHU216DAVISVP2,2013-06-28 19:47:00,
2013-06-28 15:52:00,80.2,75.3,29.84,NE,53,0.0,3.0,85,0.00,,,0.01,WUHU216DAVISVP2,2013-06-28 19:52:00,
2013-06-28 15:57:00,80.3,75.4,29.85,WNW,298,0.0,3.0,85,0.00,,,0.01,WUHU216DAVISVP2,2013-06-28 19:57:00,
2013-06-28 16:02:00,80.3,75.4,29.84,SSW,200,0.0,1.0,85,0.00,,,0.01,WUHU216DAVISVP2,2013-06-28 20:02:00,
2013-06-28 16:07:00,80.4,75.5,29.84,SSW,205,0.0,2.0,85,0.00,,,0.01,WUHU216DAVISVP2,2013-06-28 20:07:00,
2013-06-28 16:12:00,80.5,75.6,29.84,South,179,0.0,2.0,85,0.00,,,0.01,WUHU216DAVISVP2,2013-06-28 20:12:00,
2013-06-28 16:17:00,80.6,75.4,29.84,ESE,115,0.0,3.0,84,0.00,,,0.01,WUHU216DAVISVP2,2013-06-28 20:17:00,
2013-06-28 16:22:00,80.7,75.1,29.82,NE,42,0.0,3.0,83,0.00,,,0.01,WUHU216DAVISVP2,2013-06-28 20:22:00,
2013-06-28 16:27:00,80.8,74.9,29.82,SSW,202,0.0,3.0,82,0.00,,,0.01,WUHU216DAVISVP2,2013-06-28 20:27:00,
2013-06-28 16:32:00,81.0,75.4,29.82,SSW,202,0.0,3.0,83,0.00,,,0.01,WUHU216DAVISVP2,2013-06-28 20:32:00,
2013-06-28 16:37:00,81.3,75.4,29.82,NW,305,0.0,0.0,82,0.00,,,0.01,WUHU216DAVISVP2,2013-06-28 20:37:00,
2013-06-28 16:42:00,81.6,74.9,29.81,South,180,1.0,4.0,80,0.00,,,0.01,WUHU216DAVISVP2,2013-06-28 20:42:00,
2013-06-28 16:47:00,81.9,75.2,29.81,ESE,123,0.0,4.0,80,0.00,,,0.01,WUHU216DAVISVP2,2013-06-28 20:47:00,
2013-06-28 16:52:00,82.3,75.3,29.81,SSW,202,1.0,4.0,79,0.00,,,0.01,WUHU216DAVISVP2,2013-06-28 20:52:00,
2013-06-28 16:57:00,82.7,75.3,29.81,SW,225,0.0,4.0,78,0.00,,,0.01,WUHU216DAVISVP2,2013-06-28 20:57:00,
2013-06-28 17:02:00,82.9,74.7,29.81,SSW,213,5.0,6.0,76,0.00,,,0.01,WUHU216DAVISVP2,2013-06-28 21:02:00,
2013-06-28 17:07:00,82.7,73.0,29.82,SSE,160,0.0,6.0,72,0.00,,,0.01,WUHU216DAVISVP2,2013-06-28 21:07:00,
2013-06-28 17:12:00,82.6,73.7,29.82,South,180,2.0,4.0,74,0.00,,,0.01,WUHU216DAVISVP2,2013-06-28 21:12:00,
2013-06-28 17:17:00,82.5,73.6,29.81,SSW,192,0.0,3.0,74,0.00,,,0.01,WUHU216DAVISVP2,2013-06-28 21:17:00,
2013-06-28 17:22:00,82.5,74.0,29.81,NE,45,1.0,3.0,75,0.00,,,0.01,WUHU216DAVISVP2,2013-06-28 21:22:00,
2013-06-28 17:27:00,82.5,74.3,29.81,SSW,192,0.0,3.0,76,0.00,,,0.01,WUHU216DAVISVP2,2013-06-28 21:27:00,
2013-06-28 17:32:00,82.6,74.1,29.81,ENE,67,0.0,3.0,75,0.00,,,0.01,WUHU216DAVISVP2,2013-06-28 21:32:00,
2013-06-28 17:37:00,82.6,74.1,29.81,South,180,0.0,5.0,75,0.00,,,0.01,WUHU216DAVISVP2,2013-06-28 21:37:00,
2013-06-28 17:42:00,82.8,74.3,29.80,NNE,17,0.0,5.0,75,0.00,,,0.01,WUHU216DAVISVP2,2013-06-28 21:42:00,
2013-06-28 17:47:00,82.9,73.6,29.80,South,184,0.0,5.0,73,0.00,,,0.01,WUHU216DAVISVP2,2013-06-28 21:47:00,
2013-06-28 17:52:00,82.9,74.0,29.79,SSW,200,0.0,5.0,74,0.00,,,0.01,WUHU216DAVISVP2,2013-06-28 21:52:00,
2013-06-28 17:57:00,82.7,73.8,29.79,SE,127,0.0,5.0,74,0.00,,,0.01,WUHU216DAVISVP2,2013-06-28 21:57:00,
2013-06-28 18:02:00,82.6,73.7,29.79,SW,223,0.0,3.0,74,0.00,,,0.01,WUHU216DAVISVP2,2013-06-28 22:02:00,
2013-06-28 18:07:00,82.4,73.9,29.80,SSW,205,0.0,3.0,75,0.00,,,0.01,WUHU216DAVISVP2,2013-06-28 22:07:00,
2013-06-28 18:12:00,82.3,73.8,29.79,East,100,0.0,1.0,75,0.00,,,0.01,WUHU216DAVISVP2,2013-06-28 22:12:00,
2013-06-28 18:17:00,82.1,73.6,29.78,East,92,0.0,1.0,75,0.00,,,0.01,WUHU216DAVISVP2,2013-06-28 22:17:00,
2013-06-28 18:22:00,81.8,73.3,29.78,SSE,156,0.0,3.0,75,0.00,,,0.01,WUHU216DAVISVP2,2013-06-28 22:22:00,
2013-06-28 18:27:00,81.6,73.5,29.78,South,186,0.0,3.0,76,0.00,,,0.01,WUHU216DAVISVP2,2013-06-28 22:27:00,
2013-06-28 18:32:00,81.5,73.8,29.77,South,185,0.0,2.0,77,0.00,,,0.01,WUHU216DAVISVP2,2013-06-28 22:32:00,
2013-06-28 18:37:00,81.3,73.6,29.78,South,186,0.0,0.0,77,0.00,,,0.01,WUHU216DAVISVP2,2013-06-28 22:37:00,
2013-06-28 18:42:00,81.2,73.8,29.78,South,186,0.0,1.0,78,0.00,,,0.01,WUHU216DAVISVP2,2013-06-28 22:42:00,
2013-06-28 18:47:00,81.1,73.7,29.79,South,173,0.0,2.0,78,0.00,,,0.01,WUHU216DAVISVP2,2013-06-28 22:47:00,
2013-06-28 18:52:00,81.1,74.1,29.79,NNE,15,3.0,3.0,79,0.00,,,0.01,WUHU216DAVISVP2,2013-06-28 22:52:00,
2013-06-28 18:57:00,81.1,74.1,29.80,SSE,163,0.0,3.0,79,0.00,,,0.01,WUHU216DAVISVP2,2013-06-28 22:57:00,
2013-06-28 19:02:00,81.1,74.1,29.80,East,92,0.0,3.0,79,0.00,,,0.01,WUHU216DAVISVP2,2013-06-28 23:02:00,
2013-06-28 19:07:00,81.1,74.1,29.80,SSE,155,0.0,2.0,79,0.00,,,0.01,WUHU216DAVISVP2,2013-06-28 23:07:00,
2013-06-28 19:12:00,81.2,73.8,29.81,SE,144,0.0,2.0,78,0.00,,,0.01,WUHU216DAVISVP2,2013-06-28 23:12:00,
2013-06-28 19:17:00,81.1,73.7,29.82,East,98,0.0,1.0,78,0.00,,,0.01,WUHU216DAVISVP2,2013-06-28 23:17:00,
2013-06-28 19:22:00,81.1,73.7,29.82,ESE,119,0.0,1.0,78,0.00,,,0.01,WUHU216DAVISVP2,2013-06-28 23:22:00,
2013-06-28 19:27:00,81.2,73.8,29.83,WNW,283,0.0,1.0,78,0.00,,,0.01,WUHU216DAVISVP2,2013-06-28 23:27:00,
2013-06-28 19:32:00,81.2,74.2,29.83,WNW,284,0.0,1.0,79,0.00,,,0.01,WUHU216DAVISVP2,2013-06-28 23:32:00,
2013-06-28 19:37:00,81.1,74.1,29.83,WNW,287,0.0,1.0,79,0.00,,,0.01,WUHU216DAVISVP2,2013-06-28 23:37:00,
2013-06-28 19:42:00,81.1,74.1,29.83,WNW,298,0.0,1.0,79,0.00,,,0.01,WUHU216DAVISVP2,2013-06-28 23:42:00,
2013-06-28 19:47:00,81.0,74.4,29.83,West,261,0.0,1.0,80,0.00,,,0.01,WUHU216DAVISVP2,2013-06-28 23:47:00,
2013-06-28 19:52:00,80.9,74.3,29.84,West,263,0.0,1.0,80,0.00,,,0.01,WUHU216DAVISVP2,2013-06-28 23:52:00,
2013-06-28 19:57:00,80.9,74.3,29.84,West,263,0.0,1.0,80,0.00,,,0.01,WUHU216DAVISVP2,2013-06-28 23:57:00,
2013-06-28 20:02:00,80.9,74.6,29.83,West,263,0.0,0.0,81,0.00,,,0.01,WUHU216DAVISVP2,2013-06-29 00:02:00,
2013-06-28 20:07:00,80.8,74.5,29.82,West,262,0.0,0.0,81,0.00,,,0.01,WUHU216DAVISVP2,2013-06-29 00:07:00,
2013-06-28 20:12:00,80.7,74.4,29.83,West,262,0.0,0.0,81,0.00,,,0.01,WUHU216DAVISVP2,2013-06-29 00:12:00,
2013-06-28 20:17:00,80.5,74.2,29.82,West,261,0.0,0.0,81,0.00,,,0.01,WUHU216DAVISVP2,2013-06-29 00:17:00,
2013-06-28 20:22:00,80.4,74.5,29.82,West,261,0.0,1.0,82,0.00,,,0.01,WUHU216DAVISVP2,2013-06-29 00:22:00,
2013-06-28 20:27:00,80.3,74.4,29.83,West,260,0.0,1.0,82,0.00,,,0.01,WUHU216DAVISVP2,2013-06-29 00:27:00,
2013-06-28 20:32:00,80.2,74.3,29.83,West,259,0.0,0.0,82,0.00,,,0.01,WUHU216DAVISVP2,2013-06-29 00:32:00,
2013-06-28 20:37:00,80.2,74.3,29.84,West,260,0.0,1.0,82,0.00,,,0.01,WUHU216DAVISVP2,2013-06-29 00:37:00,
2013-06-28 20:42:00,80.2,74.3,29.84,West,259,0.0,1.0,82,0.00,,,0.01,WUHU216DAVISVP2,2013-06-29 00:42:00,
2013-06-28 20:47:00,80.1,74.2,29.84,SW,236,0.0,1.0,82,0.00,,,0.01,WUHU216DAVISVP2,2013-06-29 00:47:00,
2013-06-28 20:52:00,80.0,74.1,29.83,SW,236,0.0,1.0,82,0.00,,,0.01,WUHU216DAVISVP2,2013-06-29 00:52:00,
2013-06-28 20:57:00,79.9,74.0,29.83,SW,235,0.0,0.0,82,0.00,,,0.01,WUHU216DAVISVP2,2013-06-29 00:57:00,
2013-06-28 21:02:00,79.8,73.9,29.83,SW,234,0.0,1.0,82,0.00,,,0.01,WUHU216DAVISVP2,2013-06-29 01:02:00,
2013-06-28 21:07:00,79.8,73.9,29.84,SW,232,0.0,1.0,82,0.00,,,0.01,WUHU216DAVISVP2,2013-06-29 01:07:00,
2013-06-28 21:12:00,79.7,73.8,29.83,SW,232,0.0,0.0,82,0.00,,,0.01,WUHU216DAVISVP2,2013-06-29 01:12:00,
2013-06-28 21:17:00,79.7,73.8,29.82,SW,232,0.0,0.0,82,0.00,,,0.01,WUHU216DAVISVP2,2013-06-29 01:17:00,
2013-06-28 21:22:00,79.6,73.7,29.81,SW,229,0.0,0.0,82,0.00,,,0.01,WUHU216DAVISVP2,2013-06-29 01:22:00,
2013-06-28 21:27:00,79.6,73.7,29.80,SW,228,0.0,0.0,82,0.00,,,0.01,WUHU216DAVISVP2,2013-06-29 01:27:00,
2013-06-28 21:32:00,79.5,74.0,29.80,SW,227,0.0,0.0,83,0.00,,,0.01,WUHU216DAVISVP2,2013-06-29 01:32:00,
2013-06-28 21:37:00,79.4,73.9,29.81,SW,224,0.0,0.0,83,0.00,,,0.01,WUHU216DAVISVP2,2013-06-29 01:37:00,
2013-06-28 21:42:00,79.3,74.1,29.81,SW,220,0.0,0.0,84,0.00,,,0.01,WUHU216DAVISVP2,2013-06-29 01:42:00,
2013-06-28 21:47:00,79.2,74.0,29.81,SW,220,0.0,0.0,84,0.00,,,0.01,WUHU216DAVISVP2,2013-06-29 01:47:00,
2013-06-28 21:52:00,79.2,74.3,29.81,SW,221,0.0,0.0,85,0.00,,,0.01,WUHU216DAVISVP2,2013-06-29 01:52:00,
2013-06-28 21:57:00,79.1,74.2,29.81,SW,225,0.0,0.0,85,0.00,,,0.01,WUHU216DAVISVP2,2013-06-29 01:57:00,
2013-06-28 22:02:00,79.1,74.2,29.81,SW,221,0.0,0.0,85,0.00,,,0.01,WUHU216DAVISVP2,2013-06-29 02:02:00,
2013-06-28 22:07:00,79.0,74.5,29.81,SW,223,0.0,0.0,86,0.00,,,0.01,WUHU216DAVISVP2,2013-06-29 02:07:00,
2013-06-28 22:12:00,79.0,74.5,29.81,SW,223,0.0,0.0,86,0.00,,,0.01,WUHU216DAVISVP2,2013-06-29 02:12:00,
2013-06-28 22:17:00,78.9,74.4,29.82,WNW,283,0.0,1.0,86,0.00,,,0.01,WUHU216DAVISVP2,2013-06-29 02:17:00,
2013-06-28 22:22:00,78.9,74.4,29.81,North,360,0.0,1.0,86,0.00,,,0.01,WUHU216DAVISVP2,2013-06-29 02:22:00,
2013-06-28 22:27:00,78.8,74.3,29.81,North,360,0.0,1.0,86,0.00,,,0.01,WUHU216DAVISVP2,2013-06-29 02:27:00,
2013-06-28 22:32:00,78.7,74.2,29.81,North,360,0.0,0.0,86,0.00,,,0.01,WUHU216DAVISVP2,2013-06-29 02:32:00,
2013-06-28 22:37:00,78.6,74.1,29.81,North,360,0.0,0.0,86,0.00,,,0.01,WUHU216DAVISVP2,2013-06-29 02:37:00,
2013-06-28 22:42:00,78.6,74.1,29.81,North,360,0.0,0.0,86,0.00,,,0.01,WUHU216DAVISVP2,2013-06-29 02:42:00,
2013-06-28 22:47:00,78.5,74.0,29.82,North,360,0.0,0.0,86,0.00,,,0.01,WUHU216DAVISVP2,2013-06-29 02:47:00,
2013-06-28 22:52:00,78.5,74.3,29.81,North,360,0.0,0.0,87,0.00,,,0.01,WUHU216DAVISVP2,2013-06-29 02:52:00,
2013-06-28 22:57:00,78.4,74.2,29.82,North,360,0.0,1.0,87,0.00,,,0.01,WUHU216DAVISVP2,2013-06-29 02:57:00,
2013-06-28 23:02:00,78.4,74.2,29.82,NW,318,0.0,1.0,87,0.00,,,0.01,WUHU216DAVISVP2,2013-06-29 03:02:00,
2013-06-28 23:07:00,78.3,74.1,29.82,NW,318,0.0,0.0,87,0.00,,,0.01,WUHU216DAVISVP2,2013-06-29 03:07:00,
2013-06-28 23:12:00,78.2,74.0,29.82,North,349,0.0,1.0,87,0.00,,,0.01,WUHU216DAVISVP2,2013-06-29 03:12:00,
2013-06-28 23:17:00,78.2,74.0,29.81,North,349,0.0,1.0,87,0.00,,,0.01,WUHU216DAVISVP2,2013-06-29 03:17:00,
2013-06-28 23:22:00,78.2,74.0,29.81,North,350,0.0,1.0,87,0.00,,,0.01,WUHU216DAVISVP2,2013-06-29 03:22:00,
2013-06-28 23:27:00,78.2,74.0,29.81,North,350,0.0,1.0,87,0.00,,,0.01,WUHU216DAVISVP2,2013-06-29 03:27:00,
2013-06-28 23:32:00,78.2,74.4,29.81,WSW,254,0.0,1.0,88,0.00,,,0.01,WUHU216DAVISVP2,2013-06-29 03:32:00,
2013-06-28 23:37:00,78.2,74.4,29.81,West,275,0.0,1.0,88,0.00,,,0.01,WUHU216DAVISVP2,2013-06-29 03:37:00,
2013-06-28 23:42:00,78.2,74.4,29.80,West,276,0.0,1.0,88,0.00,,,0.01,WUHU216DAVISVP2,2013-06-29 03:42:00,
2013-06-28 23:47:00,78.3,74.5,29.80,WNW,293,0.0,1.0,88,0.00,,,0.01,WUHU216DAVISVP2,2013-06-29 03:47:00,
2013-06-28 23:52:00,78.4,74.9,29.80,NE,36,0.0,1.0,89,0.00,,,0.01,WUHU216DAVISVP2,2013-06-29 03:52:00,
2013-06-28 23:57:00,78.5,75.0,29.80,NE,36,0.0,1.0,89,0.00,,,0.01,WUHU216DAVISVP2,2013-06-29 03:57:00,